Weather History for Hewanorra, St. Lucia

Change the Weather History Date:

Friday, August 3, 2012

  Actual Average Record
Temperature  
Mean Temperature 80 °F -  
Max Temperature 84 °F 85 °F 89 °F (2010)
Min Temperature 75 °F 77 °F 75 °F (2012)
Cooling Degree Days 14    
Growing Degree Days 30 (Base 50)    
Moisture  
Dew Point 76 °F    
Average Humidity 87    
Maximum Humidity 100    
Minimum Humidity 75    
Precipitation  
Precipitation 0.39 in - - ()
Sea Level Pressure  
Sea Level Pressure 29.85 in    
Wind  
Wind Speed 19 mph ()    
Max Wind Speed 41 mph    
Max Gust Speed 63 mph    
Visibility 6.1 miles    
Events Rain , Thunderstorm    
Averages and records for this station are not official NWS values.
T = Trace of Precipitation, MM = Missing Value Source: Averaged Metar Reports

Daily Weather History Graph

Daily Weather History Graph

Search for Another Location

Airport:

Trip Planner

Search our weather history database for the weather conditions in past years. The results will help you decide how hot, cold, wet, or windy it might be!

Date:

Astronomy

Aug. 03, 2012 Rise Set
Actual Time 5:48 AM AST 6:30 PM AST
Civil Twilight 5:26 AM AST 6:53 PM AST
Nautical Twilight 4:59 AM AST 7:19 PM AST
Astronomical Twilight 4:33 AM AST 7:46 PM AST
Moon 7:38 PM AST (8/3) 7:01 AM AST (8/3)
Length of Visible Light 13h 27m
Length of Day
12h 42m
Full, 97% of the Moon is Illuminated
Aug 3
Full
Aug 9
Last Quarter
Aug 17
New
Aug 24
First Quarter
Aug 31
Full

Hourly Weather History & Observations

Time (AST) Temp. Heat Index Dew Point Humidity Pressure Visibility Wind Dir Wind Speed Gust Speed Precip Events Conditions
12:00 AM 82.4 °F 89.5 °F 75.2 °F 79% 29.89 in 6.2 mi ENE 19.6 mph - N/A Rain Light Rain Showers
1:00 AM 82.4 °F 89.5 °F 75.2 °F 79% 29.86 in 6.2 mi ENE 20.7 mph - N/A   Mostly Cloudy
2:00 AM 81 °F - 74 °F 75% 29.82 in 16 mi NNE 15.0 mph - -   Partly Cloudy
2:00 AM 80.6 °F 86.2 °F 75.2 °F 84% 29.80 in 6.2 mi NNE 15.0 mph - N/A   Mostly Cloudy
3:00 AM 80.6 °F 86.2 °F 75.2 °F 84% 29.77 in 6.2 mi NNE 11.5 mph - N/A Rain Light Rain Showers
4:00 AM 80.6 °F 86.2 °F 75.2 °F 84% 29.77 in 6.2 mi NE 15.0 mph - N/A   Mostly Cloudy
5:00 AM 78.8 °F - 77.0 °F 94% 29.74 in 6.2 mi NNE 23.0 mph 36.8 mph N/A   Overcast
6:00 AM 78.8 °F - 78.8 °F 100% 29.68 in 4.3 mi NE 35.7 mph 52.9 mph N/A   Mostly Cloudy
6:15 AM 78.8 °F - 78.8 °F 100% 29.68 in 2.5 mi ESE 41.4 mph 63.3 mph N/A Rain Rain Showers
7:00 AM 77.0 °F - 77.0 °F 100% 29.77 in 3.1 mi SSE 23.0 mph - N/A Rain , Thunderstorm Light Thunderstorms and Rain
8:00 AM 78 °F - 77 °F 97% 29.83 in 5 mi SE 23.0 mph - - Rain Light Rain
8:00 AM 78.8 °F - 77.0 °F 94% 29.83 in 5.0 mi SE 23.0 mph - N/A Rain Light Rain Showers
9:00 AM 80.6 °F 87.1 °F 77.0 °F 89% 29.86 in 6.2 mi SE 20.7 mph - N/A   Mostly Cloudy
10:00 AM 80.6 °F 87.1 °F 77.0 °F 89% 29.86 in 6.2 mi SSE 18.4 mph - N/A   Mostly Cloudy
10:20 AM 78.8 °F - 77.0 °F 94% 29.89 in 1.9 mi SE 27.6 mph 39.1 mph N/A Rain Rain Showers
11:00 AM 80 °F - 78 °F 90% 29.89 in 6 mi SE 21.9 mph - - Rain Light Rain
11:00 AM 80.6 °F 87.1 °F 77.0 °F 89% 29.89 in 2.5 mi SE 21.9 mph - N/A Rain Light Rain
1:00 PM 80.6 °F 87.1 °F 77.0 °F 89% 29.89 in 6.2 mi South 20.7 mph - N/A Rain Light Rain Showers
2:00 PM 82 °F - 77 °F 81% 29.88 in 9 mi SSE 26.5 mph - - Rain Light Rain Showers
2:00 PM 82.4 °F 90.9 °F 77.0 °F 84% 29.86 in 6.2 mi SSE 26.5 mph - N/A Rain Light Rain Showers
3:00 PM 80.6 °F 87.1 °F 77.0 °F 89% 29.86 in 6.2 mi SE 19.6 mph 31.1 mph N/A Rain Light Rain
4:00 PM 80.6 °F 87.1 °F 77.0 °F 89% 29.86 in 2.5 mi South 18.4 mph 36.8 mph N/A Rain Heavy Rain Showers
5:00 PM 81 °F - 77 °F 83% 29.89 in 9 mi South 23.0 mph - -   Overcast
5:00 PM 80.6 °F 85.4 °F 73.4 °F 79% 29.89 in 6.2 mi SSE 17.3 mph 29.9 mph N/A   Mostly Cloudy
7:00 PM 82.4 °F 89.5 °F 75.2 °F 79% 29.92 in 6.2 mi SE 18.4 mph - N/A   Mostly Cloudy
8:00 PM 80 °F - 76 °F 84% 29.95 in 11 mi ESE 20.7 mph - - Rain Light Rain Showers
8:00 PM 80.6 °F 87.1 °F 77.0 °F 89% 29.95 in 6.2 mi ESE 20.7 mph - N/A Rain Rain Showers
9:00 PM 80.6 °F 86.2 °F 75.2 °F 84% 29.95 in 6.2 mi ESE 17.3 mph - N/A Rain Rain Showers
11:00 PM 80.6 °F 86.2 °F 75.2 °F 84% 29.98 in 6.2 mi ESE 19.6 mph - N/A Rain Rain